CW4629 Weather Reports


Display with metric or nautical units.
time (UTC)temp
F
wind
direction
speed
MPH
gust
MPH
rain 1hr
in
rain 24hr
in
rain mn
in
humidity
%
barometer
mb
20260502203129 83 83 3.0 6.0 0.00 0.00 0.00 8 1017.8
20260502202227 83 179 5.0 10.0 0.00 0.00 0.00 9 1017.9
20260502201228 83 185 4.0 5.0 0.00 0.00 0.00 9 1018.1
20260502200228 83 157 3.0 7.0 0.00 0.00 0.00 9 1018.3
20260502194329 82 20 2.0 4.0 0.00 0.00 0.00 10 1018.5
20260502193427 82 168 7.0 11.0 0.00 0.00 0.00 11 1018.7
20260502193327 82 166 6.0 10.0 0.00 0.00 0.00 10 1018.8
20260502191427 79 249 1.0 3.0 0.00 0.00 0.00 11 1019.2
20260502190428 79 281 1.0 3.0 0.00 0.00 0.00 11 1019.3
20260502185429 81 236 2.0 7.0 0.00 0.00 0.00 11 1019.5
20260502184428 80 181 3.0 5.0 0.00 0.00 0.00 10 1019.8
20260502183443 77 238 0.0 0.0 0.00 0.00 0.00 12 1020.0
20260502182429 77 270 0.0 0.0 0.00 0.00 0.00 12 1020.1
20260502181428 77 9 2.0 4.0 0.00 0.00 0.00 12 1020.4
20260502180526 77 157 0.0 1.0 0.00 0.00 0.00 13 1020.5
20260502163926 71 199 2.0 5.0 0.00 0.00 0.00 18 1021.7
20260502162926 71 202 0.0 0.0 0.00 0.00 0.00 18 1021.7
20260502161944 70 189 1.0 3.0 0.00 0.00 0.00 20 1021.7
20260502160945 69 96 0.0 0.0 0.00 0.00 0.00 20 1021.8
20260502152028 65 202 0.0 0.0 0.00 0.00 0.00 22 1022.0
20260502151127 65 247 0.0 0.0 0.00 0.00 0.00 22 1022.0
20260502150128 66 202 2.0 3.0 0.00 0.00 0.00 22 1022.1
20260502122927 49 112 0.0 0.0 0.00 0.00 0.00 39 1020.7
20260502122826 49 112 0.0 0.0 0.00 0.00 0.00 39 1020.7
20260502121829 50 209 1.0 2.0 0.00 0.00 0.00 38 1020.6
20260502120827 50 67 0.0 1.0 0.00 0.00 0.00 38 1020.4
20260502115828 50 360 0.0 0.0 0.00 0.00 0.00 37 1020.3
20260502114826 51 90 0.0 0.0 0.00 0.00 0.00 36 1020.3
20260502114728 51 90 0.0 0.0 0.00 0.00 0.00 36 1020.3
20260502113729 50 45 1.0 2.0 0.00 0.00 0.00 39 1020.3
20260502112827 51 22 0.0 0.0 0.00 0.00 0.00 37 1020.4
20260502111827 52 22 0.0 0.0 0.00 0.00 0.00 35 1020.4
20260502110845 52 45 0.0 0.0 0.00 0.00 0.00 37 1020.3
20260502105827 52 67 0.0 0.0 0.00 0.00 0.00 37 1020.2
20260502104827 51 292 2.0 3.0 0.00 0.00 0.00 38 1020.3
20260502103926 51 315 0.0 0.0 0.00 0.00 0.00 40 1020.3
20260502102929 51 22 0.0 0.0 0.00 0.00 0.00 39 1020.2
20260502101929 52 22 0.0 0.0 0.00 0.00 0.00 36 1020.2
20260502091126 56 341 1.0 2.0 0.00 0.00 0.00 30 1020.0
20260502090226 56 337 1.0 2.0 0.00 0.00 0.00 28 1020.0
20260502090128 57 337 1.0 2.0 0.00 0.00 0.00 27 1020.0
20260502070626 58 22 0.0 1.0 0.00 0.00 0.00 27 1019.7
20260502065627 59 90 0.0 0.0 0.00 0.00 0.00 26 1019.7
20260502064644 61 90 0.0 0.0 0.00 0.00 0.00 23 1019.5
20260502063627 62 90 1.0 2.0 0.00 0.00 0.00 21 1019.5
20260502061627 62 180 1.0 2.0 0.00 0.00 0.00 21 1019.3
20260502060726 63 135 0.0 1.0 0.00 0.00 0.00 21 1019.2
20260502055737 63 112 0.0 0.0 0.00 0.00 0.00 20 1018.9
20260502054820 63 90 0.0 0.0 0.00 0.00 0.00 21 1019.0
20260502053820 64 90 0.0 1.0 0.00 0.00 0.00 19 1018.8
20260502052820 65 90 0.0 0.0 0.00 0.00 0.00 18 1018.8
20260502051820 66 202 0.0 0.0 0.00 0.00 0.00 18 1018.6
20260502045834 67 90 0.0 1.0 0.00 0.00 0.00 14 1018.5
20260502044920 68 292 0.0 0.0 0.00 0.00 0.00 14 1018.2
20260502043918 69 337 0.0 1.0 0.00 0.00 0.00 14 1018.1
20260502041936 70 331 3.0 8.0 0.00 0.00 0.00 14 1017.8
20260502041020 69 358 3.0 7.0 0.00 0.00 0.00 13 1017.7
20260502040042 69 342 3.0 6.0 0.00 0.00 0.00 14 1017.5
20260502035119 70 315 0.0 3.0 0.00 0.00 0.00 15 1017.4
20260502034121 70 334 2.0 5.0 0.00 0.00 0.00 14 1017.2
20260502033137 71 335 3.0 5.0 0.00 0.00 0.00 14 1017.1
20260502031135 72 352 2.0 4.0 0.00 0.00 0.00 13 1016.7
20260502030234 72 313 4.0 8.0 0.00 0.00 0.00 13 1016.6
20260502025235 72 335 4.0 7.0 0.00 0.00 0.00 13 1016.3
20260502024219 73 21 2.0 4.0 0.00 0.00 0.00 12 1016.4
20260502023219 74 344 2.0 4.0 0.00 0.00 0.00 12 1016.1
20260502022219 74 6 4.0 6.0 0.00 0.00 0.00 12 1016.0
20260502021236 75 332 6.0 8.0 0.00 0.00 0.00 12 1015.7
20260502020335 76 349 3.0 8.0 0.00 0.00 0.00 11 1015.9
20260502015335 77 337 5.0 12.0 0.00 0.00 0.00 11 1015.7
20260502014336 77 356 8.0 12.0 0.00 0.00 0.00 10 1015.6
20260502013419 78 351 4.0 7.0 0.00 0.00 0.00 10 1015.6
20260502012419 78 18 9.0 15.0 0.00 0.00 0.00 10 1015.6
20260502011420 77 3 8.0 12.0 0.00 0.00 0.00 10 1015.6
20260502010437 78 338 4.0 8.0 0.00 0.00 0.00 10 1015.6
20260502005419 78 342 5.0 10.0 0.00 0.00 0.00 10 1015.6
20260502003435 78 2 4.0 7.0 0.00 0.00 0.00 8 1015.6
20260502002520 78 349 11.0 18.0 0.00 0.00 0.00 10 1015.6
20260502001518 79 301 5.0 8.0 0.00 0.00 0.00 10 1015.6
20260502000537 78 348 6.0 14.0 0.00 0.00 0.00 9 1015.6
20260501233636 78 336 8.0 19.0 0.00 0.00 0.00 9 1015.6
20260501232719 78 335 9.0 15.0 0.00 0.00 0.00 9 1015.4
20260501231734 78 303 12.0 18.0 0.00 0.00 0.00 10 1015.3
20260501230820 78 310 9.0 16.0 0.00 0.00 0.00 10 1015.5
20260501224919 79 1 10.0 18.0 0.00 0.00 0.00 11 1015.7
20260501222034 78 18 5.0 9.0 0.00 0.00 0.00 11 1015.9
20260501221035 79 322 12.0 19.0 0.00 0.00 0.00 11 1015.5
20260501220134 78 327 11.0 16.0 0.00 0.00 0.00 12 1015.9
20260501215218 78 311 15.0 21.0 0.00 0.00 0.00 13 1015.8
20260501214235 78 301 14.0 18.0 0.00 0.00 0.00 13 1016.0
20260501213317 77 317 13.0 21.0 0.00 0.00 0.00 13 1016.0
20260501212320 78 310 6.0 11.0 0.00 0.00 0.00 11 1016.4
20260501211418 78 324 10.0 16.0 0.00 0.00 0.00 12 1016.4
20260501210335 78 303 12.0 18.0 0.00 0.00 0.00 12 1016.4
20260501204318 77 317 10.0 16.0 0.00 0.00 0.00 12 1016.6